Weather History for Billings, MT

Change the Weather History Date:

Wednesday, January 2, 2013

  Actual Average Record
Temperature  
Mean Temperature 25 °F 26 °F  
Max Temperature 33 °F 35 °F 57 °F (1939)
Min Temperature 16 °F 17 °F -20 °F (1950)
Degree Days  
Heating Degree Days 40 39  
Month to date heating degree days 80 78  
Since 1 July heating degree days 2621 2899  
Cooling Degree Days 0 0  
Month to date cooling degree days 0 0  
Year to date cooling degree days 0 0  
Moisture  
Dew Point 10 °F    
Average Humidity 51    
Maximum Humidity 60    
Minimum Humidity 41    
Precipitation  
Precipitation 0.00 in 0.01 in 1.22 in (1972)
Month to date precipitation 0.01 0.03  
Year to date precipitation 0.01 0.03  
Snow  
Snow 0.00 in 0.30 in 14.00 in (1972)
Month to date snowfall 0.1 0.6  
Since 1 July snowfall 16.4 20.5  
Snow Depth 1.00 in    
Sea Level Pressure  
Sea Level Pressure 30.36 in    
Wind  
Wind Speed 15 mph (West)    
Max Wind Speed 17 mph    
Max Gust Speed 20 mph    
Visibility 10 miles    
Events      
T = Trace of Precipitation, MM = Missing Value Source: NWS Daily Summary

Daily Weather History Graph

Daily Weather History Graph

Search for Another Location

Airport:

Trip Planner

Search our weather history database for the weather conditions in past years. The results will help you decide how hot, cold, wet, or windy it might be!

Date:

Astronomy

Jan. 02, 2013 Rise Set
Actual Time 7:55 AM MST 4:41 PM MST
Civil Twilight 7:21 AM MST 5:15 PM MST
Nautical Twilight 6:43 AM MST 5:53 PM MST
Astronomical Twilight 6:07 AM MST 6:29 PM MST
Moon 10:36 PM MST (1/2) 10:21 AM MST (1/2)
Length of Visible Light 9h 54m
Length of Day
8h 46m
Waning Gibbous, 74% of the Moon is Illuminated
Jan 2
Waning Gibbous
Jan 4
Last Quarter
Jan 11
New
Jan 18
First Quarter
Jan 26
Full

Hourly Weather History & Observations

Time (MST) Temp. Windchill Dew Point Humidity Pressure Visibility Wind Dir Wind Speed Gust Speed Precip Events Conditions
12:53 AM 26.1 °F 13.1 °F 12.9 °F 58% 30.30 in 10.0 mi West 17.3 mph - N/A   Overcast
1:53 AM 24.1 °F 9.8 °F 12.0 °F 60% 30.30 in 10.0 mi WNW 19.6 mph - N/A   Partly Cloudy
2:53 AM 24.1 °F 11.0 °F 10.9 °F 57% 30.32 in 10.0 mi West 16.1 mph - N/A   Partly Cloudy
3:53 AM 24.1 °F 9.8 °F 10.0 °F 55% 30.33 in 10.0 mi WNW 19.6 mph - N/A   Clear
4:53 AM 21.9 °F 7.8 °F 9.0 °F 58% 30.34 in 10.0 mi West 17.3 mph - N/A   Clear
5:53 AM 23.0 °F 6.6 °F 10.0 °F 58% 30.31 in 10.0 mi West 25.3 mph - N/A   Clear
6:53 AM 23.0 °F 6.9 °F 9.0 °F 55% 30.31 in 10.0 mi West 24.2 mph - N/A   Clear
7:53 AM 24.1 °F 10.1 °F 9.0 °F 53% 30.32 in 10.0 mi West 18.4 mph - N/A   Clear
8:53 AM 24.1 °F 10.1 °F 9.0 °F 53% 30.33 in 10.0 mi West 18.4 mph - N/A   Clear
9:53 AM 26.1 °F 12.3 °F 10.0 °F 51% 30.36 in 10.0 mi West 19.6 mph - N/A   Clear
10:53 AM 28.9 °F 15.8 °F 10.9 °F 47% 30.37 in 10.0 mi WNW 20.7 mph - N/A   Partly Cloudy
11:53 AM 30.9 °F 19.8 °F 12.9 °F 47% 30.36 in 10.0 mi WNW 16.1 mph - N/A   Partly Cloudy
12:53 PM 33.1 °F 23.9 °F 12.9 °F 43% 30.36 in 10.0 mi West 12.7 mph - N/A   Partly Cloudy
1:53 PM 33.1 °F 24.4 °F 12.9 °F 43% 30.36 in 10.0 mi WNW 11.5 mph - N/A   Partly Cloudy
2:53 PM 32.0 °F 23.6 °F 15.1 °F 50% 30.38 in 10.0 mi WNW 10.4 mph - N/A   Partly Cloudy
3:53 PM 30.0 °F 21.7 °F 14.0 °F 51% 30.39 in 10.0 mi WNW 9.2 mph - N/A   Clear
4:53 PM 24.1 °F 13.1 °F 12.0 °F 60% 30.42 in 10.0 mi WNW 11.5 mph - N/A   Clear
5:53 PM 24.1 °F 12.5 °F 10.0 °F 55% 30.42 in 10.0 mi WNW 12.7 mph - N/A   Clear
6:53 PM 21.9 °F 9.8 °F 8.1 °F 55% 30.43 in 10.0 mi WSW 12.7 mph - N/A   Clear
7:04 PM 23.0 °F 11.7 °F 8.6 °F 54% 30.28 in 10.0 mi West 11.5 mph - N/A   Clear
7:53 PM 21.0 °F 10.6 °F 9.0 °F 60% 30.41 in 10.0 mi West 9.2 mph - N/A   Clear
8:53 PM 21.0 °F 9.9 °F 7.0 °F 55% 30.41 in 10.0 mi SW 10.4 mph - N/A   Clear
9:53 PM 19.0 °F - 5.0 °F 54% 30.42 in 10.0 mi Calm Calm - N/A   Clear
10:53 PM 19.0 °F 7.5 °F 5.0 °F 54% 30.41 in 10.0 mi SW 10.4 mph - N/A   Clear
11:53 PM 19.9 °F 5.7 °F 6.1 °F 55% 30.41 in 10.0 mi WSW 16.1 mph - N/A   Clear